RESURS-DK 1

Last updated on Thu Oct 30 2025 00:02:15 GMT+0000 (Coordinated Universal Time)

1 29228U 06021A 25302.50490407 .00003682 00000+0 22124-3 0 9995 2 29228 69.9335 216.1198 0007027 295.7054 64.3385 15.11796910 67693
UTC large
Height (km)
Speed (km/s)
/
Latitude / Longitude
Inclination (degrees)
Orbital Period (minutes)
Azimuth
Elevation
Range (km)
Doppler Factor

Next 0 passes for location: London (51.5072 / 0.1276)

Sorry there are no passes over London.